CW4884 Weather Reports


Display with metric or nautical units.
time (UTC)temp
F
wind
direction
speed
MPH
gust
MPH
rain 1hr
in
rain 24hr
in
rain mn
in
humidity
%
barometer
mb
20260507233018 73 277 3.0 0.0 0.00 0.00 0.00 33 1007.3
20260507231551 74 315 3.0 0.0 0.00 0.00 0.00 33 1007.4
20260507230058 74 258 3.0 0.0 0.00 0.00 0.00 31 1007.5
20260507220036 73 311 2.0 0.0 0.00 0.00 0.00 38 1007.7
20260507214515 74 237 3.0 0.0 0.00 0.00 0.00 35 1007.7
20260507213022 72 288 3.0 0.0 0.00 0.00 0.00 38 1007.8
20260507210011 73 291 4.0 0.0 0.00 0.00 0.00 36 1008.3
20260507204517 73 162 4.0 0.0 0.00 0.00 0.00 36 1008.3
20260507203055 71 294 3.0 0.0 0.00 0.00 0.00 38 1008.5
20260507201558 71 225 2.0 0.0 0.00 0.00 0.00 39 1008.6
20260507194550 71 140 4.0 0.0 0.00 0.00 0.00 38 1008.6
20260507193032 69 227 2.0 0.0 0.00 0.00 0.00 41 1008.9
20260507191548 70 286 2.0 0.0 0.00 0.00 0.00 45 1008.9
20260507190045 70 302 2.0 0.0 0.00 0.00 0.00 43 1009.0
20260507181505 68 282 2.0 0.0 0.00 0.00 0.00 42 1009.4
20260507173108 66 265 1.0 0.0 0.00 0.00 0.00 50 1010.0
20260507171554 63 265 1.0 0.0 0.00 0.00 0.00 46 1010.1
20260507170056 64 257 1.0 0.0 0.00 0.00 0.00 47 1010.2
20260507164624 64 255 1.0 0.0 0.00 0.00 0.00 47 1010.3
20260507163056 64 252 1.0 0.0 0.00 0.00 0.00 48 1010.1
20260507161558 64 252 1.0 0.0 0.00 0.00 0.00 48 1010.2
20260507160051 64 251 1.0 0.0 0.00 0.00 0.00 48 1010.4
20260507154556 65 238 1.0 0.0 0.00 0.00 0.00 46 1010.4
20260507153046 61 260 1.0 0.0 0.00 0.00 0.00 52 1010.5
20260507151543 59 27 1.0 0.0 0.00 0.00 0.00 58 1010.6
20260507150041 57 27 0.0 0.0 0.00 0.00 0.00 65 1010.6
20260507144537 55 27 0.0 0.0 0.00 0.00 0.00 73 1010.5
20260507143030 54 27 0.0 0.0 0.00 0.00 0.00 74 1010.4
20260507141526 52 27 0.0 0.0 0.00 0.00 0.00 79 1010.4
20260507140025 51 27 0.0 0.0 0.00 0.00 0.00 80 1010.2
20260507134525 50 27 0.0 0.0 0.00 0.00 0.00 84 1010.2
20260507133027 47 27 0.0 0.0 0.00 0.00 0.00 87 1010.1
20260507131521 46 27 0.0 0.0 0.00 0.00 0.00 88 1010.0
20260507130021 45 27 0.0 0.0 0.00 0.00 0.00 88 1009.9
20260507124528 44 27 0.0 0.0 0.00 0.00 0.00 88 1009.8
20260507123022 44 27 0.0 0.0 0.00 0.00 0.00 88 1009.8
20260507121518 43 27 0.0 0.0 0.00 0.00 0.00 87 1009.8
20260507120018 43 27 0.0 0.0 0.00 0.00 0.00 87 1009.7
20260507114517 43 27 0.0 0.0 0.00 0.00 0.00 86 1009.7
20260507113034 43 27 0.0 0.0 0.00 0.00 0.00 86 1009.5
20260507111513 43 27 0.0 0.0 0.00 0.00 0.00 85 1009.4
20260507110015 44 27 0.0 0.0 0.00 0.00 0.00 85 1009.4
20260507104509 44 27 0.0 0.0 0.00 0.00 0.00 85 1009.3
20260507103008 44 27 0.0 0.0 0.00 0.00 0.00 84 1009.1
20260507101513 45 27 0.0 0.0 0.00 0.00 0.00 83 1008.8
20260507100004 45 27 0.0 0.0 0.00 0.00 0.00 83 1008.7
20260507094607 46 27 0.0 0.0 0.00 0.00 0.00 82 1008.7
20260507093057 46 27 0.0 0.0 0.00 0.00 0.00 81 1008.6
20260507091622 47 27 0.0 0.0 0.00 0.00 0.00 81 1008.5
20260507090054 47 27 0.0 0.0 0.00 0.00 0.00 81 1008.5
20260507084603 48 27 0.0 0.0 0.00 0.00 0.00 80 1008.4
20260507083049 48 27 0.0 0.0 0.00 0.00 0.00 80 1008.4
20260507081553 49 27 0.0 0.0 0.00 0.00 0.00 79 1008.6
20260507080045 50 27 0.0 0.0 0.00 0.00 0.00 78 1008.4
20260507074548 50 27 0.0 0.0 0.00 0.00 0.00 78 1008.4
20260507073040 51 27 0.0 0.0 0.00 0.00 0.00 77 1008.2
20260507071537 52 27 0.0 0.0 0.00 0.00 0.00 76 1008.3
20260507070037 52 27 0.0 0.0 0.00 0.00 0.00 76 1008.4
20260507064537 52 27 0.0 0.0 0.00 0.00 0.00 76 1008.2
20260507063035 53 27 0.0 0.0 0.00 0.00 0.00 75 1008.5
20260507061532 53 27 0.0 0.0 0.00 0.00 0.00 74 1008.5
20260507060030 53 27 0.0 0.0 0.00 0.00 0.00 75 1008.6
20260507054529 53 27 0.0 0.0 0.00 0.00 0.00 74 1008.7
20260507053028 53 27 0.0 0.0 0.00 0.00 0.00 73 1008.5
20260507051525 54 27 0.0 0.0 0.00 0.00 0.00 72 1008.5
20260507050028 55 27 0.0 0.0 0.00 0.00 0.00 71 1008.4
20260507044520 55 27 0.0 0.0 0.00 0.00 0.00 70 1008.4
20260507043024 56 27 0.0 0.0 0.00 0.00 0.00 69 1008.4
20260507041517 56 27 0.0 0.0 0.00 0.00 0.00 68 1008.5
20260507040015 56 27 0.0 0.0 0.00 0.00 0.00 68 1008.3
20260507034521 57 27 0.0 0.0 0.00 0.00 0.00 67 1008.1
20260507033014 58 27 0.0 0.0 0.00 0.00 0.00 66 1008.0
20260507031507 58 27 0.0 0.0 0.00 0.00 0.00 64 1007.7
20260507030008 59 27 0.0 0.0 0.00 0.00 0.00 62 1007.7
20260507024512 60 27 0.0 0.0 0.00 0.00 0.00 59 1007.8
20260507023007 62 27 0.0 0.0 0.00 0.00 0.00 55 1007.7
20260507021502 63 27 1.0 0.0 0.00 0.00 0.00 51 1007.8
20260507020002 64 27 0.0 0.0 0.00 0.00 0.00 52 1007.8
20260507014501 65 27 0.0 0.0 0.00 0.00 0.00 46 1007.8
20260507013003 65 27 0.0 0.0 0.00 0.00 0.00 45 1007.8
20260507011602 66 27 1.0 0.0 0.00 0.00 0.00 43 1007.8
20260507010101 67 30 2.0 0.0 0.00 0.00 0.00 43 1008.0
20260507004605 68 229 0.0 0.0 0.00 0.00 0.00 42 1007.8
20260507003116 68 226 1.0 0.0 0.00 0.00 0.00 42 1007.8
20260507001615 69 226 0.0 0.0 0.00 0.00 0.00 41 1008.0
20260507000057 69 226 0.0 0.0 0.00 0.00 0.00 41 1008.2
20260506234557 70 226 1.0 0.0 0.00 0.00 0.00 42 1008.2